| time (UTC) | temp C | wind direction | speed KPH | gust KPH | rain 1hr cm | rain 24hr cm | rain mn cm | humidity % | barometer mb |
| 20260505024741 | 13 | 242 | 1.6 | 6.4 | 0.00 | 0.00 | 0.00 | 56 | 1012.4 |
| 20260505023741 | 13 | 160 | 3.2 | 6.4 | 0.00 | 0.00 | 0.00 | 55 | 1012.4 |
| 20260505022755 | 14 | 239 | 9.7 | 16.1 | 0.00 | 0.00 | 0.00 | 54 | 1012.4 |
| 20260505021838 | 14 | 247 | 4.8 | 8.0 | 0.00 | 0.00 | 0.00 | 54 | 1012.3 |
| 20260505021757 | 14 | 186 | 4.8 | 9.7 | 0.00 | 0.00 | 0.00 | 54 | 1012.3 |
| 20260505020739 | 14 | 244 | 8.0 | 16.1 | 0.00 | 0.00 | 0.00 | 53 | 1012.2 |
| 20260505020641 | 14 | 240 | 3.2 | 11.3 | 0.00 | 0.00 | 0.00 | 53 | 1012.2 |
| 20260505015641 | 14 | 246 | 0.0 | 4.8 | 0.00 | 0.00 | 0.00 | 51 | 1012.3 |
| 20260505014739 | 15 | 218 | 6.4 | 14.5 | 0.00 | 0.00 | 0.00 | 51 | 1012.2 |
| 20260505011937 | 15 | 245 | 6.4 | 11.3 | 0.00 | 0.00 | 0.00 | 47 | 1011.8 |
| 20260505011838 | 15 | 249 | 6.4 | 12.9 | 0.00 | 0.00 | 0.00 | 48 | 1011.8 |
| 20260505010839 | 15 | 208 | 3.2 | 6.4 | 0.00 | 0.00 | 0.00 | 46 | 1011.7 |
| 20260505005838 | 16 | 202 | 8.0 | 19.3 | 0.00 | 0.00 | 0.00 | 43 | 1011.6 |
| 20260505004839 | 16 | 236 | 3.2 | 4.8 | 0.00 | 0.00 | 0.00 | 43 | 1011.2 |
| 20260505004740 | 16 | 230 | 1.6 | 3.2 | 0.00 | 0.00 | 0.00 | 43 | 1011.0 |
| 20260505003839 | 16 | 221 | 1.6 | 6.4 | 0.00 | 0.00 | 0.00 | 42 | 1011.0 |
| 20260505002838 | 16 | 194 | 3.2 | 4.8 | 0.00 | 0.00 | 0.00 | 42 | 1011.0 |
| 20260505002739 | 16 | 247 | 3.2 | 4.8 | 0.00 | 0.00 | 0.00 | 42 | 1011.0 |
| 20260505002641 | 16 | 236 | 4.8 | 11.3 | 0.00 | 0.00 | 0.00 | 42 | 1011.0 |
| 20260505001738 | 16 | 232 | 1.6 | 4.8 | 0.00 | 0.00 | 0.00 | 41 | 1010.8 |
| 20260505000739 | 17 | 247 | 1.6 | 4.8 | 0.00 | 0.00 | 0.00 | 39 | 1010.5 |
| 20260505000640 | 17 | 237 | 3.2 | 6.4 | 0.00 | 0.00 | 0.00 | 39 | 1010.5 |
| 20260504235640 | 17 | 240 | 3.2 | 6.4 | 0.00 | 0.00 | 0.00 | 39 | 1010.4 |
| 20260504232638 | 18 | 221 | 3.2 | 8.0 | 0.00 | 0.00 | 0.00 | 36 | 1009.9 |
| 20260504230837 | 18 | 229 | 8.0 | 12.9 | 0.00 | 0.00 | 0.00 | 35 | 1009.6 |
| 20260504230740 | 18 | 240 | 9.7 | 16.1 | 0.00 | 0.00 | 0.00 | 34 | 1009.5 |
| 20260504225840 | 19 | 247 | 4.8 | 8.0 | 0.00 | 0.00 | 0.00 | 33 | 1009.5 |
| 20260504224842 | 19 | 183 | 1.6 | 11.3 | 0.00 | 0.00 | 0.00 | 34 | 1009.3 |
| 20260504221938 | 20 | 249 | 6.4 | 12.9 | 0.00 | 0.00 | 0.00 | 32 | 1008.9 |
| 20260504220939 | 20 | 250 | 11.3 | 19.3 | 0.00 | 0.00 | 0.00 | 32 | 1008.8 |
| 20260504215940 | 20 | 260 | 14.5 | 20.9 | 0.00 | 0.00 | 0.00 | 33 | 1008.8 |
| 20260504214938 | 20 | 227 | 4.8 | 11.3 | 0.00 | 0.00 | 0.00 | 33 | 1008.8 |
| 20260504213939 | 20 | 223 | 6.4 | 9.7 | 0.00 | 0.00 | 0.00 | 33 | 1008.9 |
| 20260504213838 | 20 | 254 | 9.7 | 14.5 | 0.00 | 0.00 | 0.00 | 33 | 1008.9 |
| 20260504213741 | 20 | 247 | 8.0 | 16.1 | 0.00 | 0.00 | 0.00 | 33 | 1009.0 |
| 20260504212740 | 20 | 265 | 9.7 | 16.1 | 0.00 | 0.00 | 0.00 | 33 | 1009.0 |
| 20260504212640 | 20 | 286 | 8.0 | 12.9 | 0.00 | 0.00 | 0.00 | 33 | 1009.1 |
| 20260504212538 | 20 | 200 | 8.0 | 14.5 | 0.00 | 0.00 | 0.00 | 33 | 1009.0 |
| 20260504211540 | 20 | 246 | 14.5 | 29.0 | 0.00 | 0.00 | 0.00 | 33 | 1009.1 |
| 20260504210555 | 20 | 242 | 8.0 | 14.5 | 0.00 | 0.00 | 0.00 | 33 | 1009.1 |
| 20260504205639 | 20 | 237 | 6.4 | 14.5 | 0.00 | 0.00 | 0.00 | 33 | 1009.1 |
| 20260504204640 | 20 | 216 | 12.9 | 19.3 | 0.00 | 0.00 | 0.00 | 33 | 1009.2 |
| 20260504203739 | 19 | 233 | 8.0 | 20.9 | 0.00 | 0.00 | 0.00 | 34 | 1009.3 |
| 20260504203639 | 19 | 231 | 11.3 | 17.7 | 0.00 | 0.00 | 0.00 | 34 | 1009.2 |
| 20260504202637 | 19 | 240 | 12.9 | 19.3 | 0.00 | 0.00 | 0.00 | 34 | 1009.3 |
| 20260504201638 | 18 | 249 | 14.5 | 24.1 | 0.00 | 0.00 | 0.00 | 34 | 1009.3 |
| 20260504200641 | 19 | 283 | 12.9 | 25.7 | 0.00 | 0.00 | 0.00 | 34 | 1009.2 |
| 20260504195639 | 18 | 232 | 16.1 | 25.7 | 0.00 | 0.00 | 0.00 | 34 | 1009.3 |
| 20260504194640 | 18 | 237 | 17.7 | 27.4 | 0.00 | 0.00 | 0.00 | 33 | 1009.6 |
| 20260504192638 | 20 | 249 | 9.7 | 17.7 | 0.00 | 0.00 | 0.00 | 33 | 1009.3 |
| 20260504191639 | 19 | 269 | 9.7 | 16.1 | 0.00 | 0.00 | 0.00 | 32 | 1009.2 |
| 20260504190637 | 19 | 220 | 12.9 | 20.9 | 0.00 | 0.00 | 0.00 | 34 | 1009.4 |
| 20260504185639 | 18 | 235 | 8.0 | 19.3 | 0.00 | 0.00 | 0.00 | 33 | 1009.3 |
| 20260504184638 | 18 | 226 | 14.5 | 33.8 | 0.00 | 0.00 | 0.00 | 33 | 1009.5 |
| 20260504184537 | 18 | 231 | 12.9 | 27.4 | 0.00 | 0.00 | 0.00 | 34 | 1009.5 |
| 20260504183440 | 18 | 232 | 9.7 | 14.5 | 0.00 | 0.00 | 0.00 | 34 | 1009.5 |
| 20260504182440 | 18 | 252 | 14.5 | 25.7 | 0.00 | 0.00 | 0.00 | 35 | 1009.5 |
| 20260504181454 | 18 | 223 | 11.3 | 20.9 | 0.00 | 0.00 | 0.00 | 34 | 1009.8 |
| 20260504180537 | 18 | 223 | 11.3 | 16.1 | 0.00 | 0.00 | 0.00 | 34 | 1009.7 |
| 20260504180457 | 18 | 227 | 8.0 | 17.7 | 0.00 | 0.00 | 0.00 | 34 | 1009.8 |
| 20260504175439 | 18 | 223 | 9.7 | 22.5 | 0.00 | 0.00 | 0.00 | 35 | 1009.6 |
| 20260504174538 | 18 | 234 | 11.3 | 24.1 | 0.00 | 0.00 | 0.00 | 35 | 1009.8 |
| 20260504173540 | 17 | 252 | 9.7 | 19.3 | 0.00 | 0.00 | 0.00 | 35 | 1010.0 |
| 20260504172538 | 17 | 259 | 12.9 | 22.5 | 0.00 | 0.00 | 0.00 | 33 | 1009.9 |
| 20260504171538 | 17 | 246 | 12.9 | 24.1 | 0.00 | 0.00 | 0.00 | 34 | 1009.9 |
| 20260504150440 | 15 | 262 | 4.8 | 11.3 | 0.00 | 0.00 | 0.00 | 40 | 1011.1 |
| 20260504140338 | 13 | 245 | 8.0 | 14.5 | 0.00 | 0.00 | 0.00 | 44 | 1011.6 |
| 20260504130337 | 11 | 254 | 8.0 | 11.3 | 0.00 | 0.00 | 0.00 | 51 | 1012.4 |
| 20260504130239 | 11 | 273 | 4.8 | 6.4 | 0.00 | 0.00 | 0.00 | 52 | 1012.3 |
| 20260504110138 | 3 | 135 | 0.0 | 0.0 | 0.00 | 0.00 | 0.00 | 79 | 1012.8 |
| 20260504100338 | 3 | 202 | 0.0 | 1.6 | 0.00 | 0.03 | 0.00 | 79 | 1012.8 |
| 20260504081339 | 3 | 225 | 3.2 | 6.4 | 0.00 | 0.03 | 0.00 | 83 | 1012.6 |
| 20260504081239 | 3 | 214 | 3.2 | 6.4 | 0.00 | 0.03 | 0.00 | 83 | 1012.4 |
| 20260504080239 | 3 | 180 | 0.0 | 0.0 | 0.00 | 0.03 | 0.00 | 82 | 1012.5 |
| 20260504080138 | 3 | 180 | 0.0 | 0.0 | 0.00 | 0.03 | 0.00 | 82 | 1012.6 |
| 20260504070140 | 4 | 135 | 0.0 | 3.2 | 0.00 | 0.03 | 0.00 | 72 | 1012.3 |
| 20260504050137 | 1 | 157 | 0.0 | 0.0 | 0.00 | 0.03 | 0.00 | 86 | 1012.7 |
| 20260504045037 | 0 | 157 | 0.0 | 0.0 | 0.00 | 0.03 | 0.00 | 86 | 1012.7 |
| 20260504044038 | 0 | 157 | 0.0 | 0.0 | 0.00 | 0.03 | 0.00 | 85 | 1012.6 |
| 20260504043938 | 0 | 157 | 0.0 | 0.0 | 0.00 | 0.03 | 0.00 | 85 | 1012.7 |
| 20260504042940 | 0 | 157 | 0.0 | 0.0 | 0.00 | 0.03 | 0.00 | 85 | 1012.7 |
| 20260504041939 | 0 | 157 | 0.0 | 0.0 | 0.00 | 0.03 | 0.00 | 85 | 1012.7 |
| 20260504040939 | 0 | 22 | 0.0 | 0.0 | 0.00 | 0.03 | 0.00 | 83 | 1012.7 |
| 20260504040031 | 0 | 22 | 0.0 | 0.0 | 0.00 | 0.03 | 0.00 | 83 | 1012.6 |
| 20260504035024 | 0 | 22 | 0.0 | 0.0 | 0.00 | 0.03 | 0.03 | 82 | 1012.5 |
| 20260504034925 | 0 | 22 | 0.0 | 0.0 | 0.00 | 0.03 | 0.03 | 83 | 1012.5 |
| 20260504033925 | 0 | 22 | 0.0 | 0.0 | 0.00 | 0.03 | 0.03 | 83 | 1012.5 |
| 20260504033024 | 0 | 22 | 0.0 | 0.0 | 0.00 | 0.03 | 0.03 | 82 | 1012.4 |
| 20260504032026 | 0 | 22 | 0.0 | 0.0 | 0.00 | 0.03 | 0.03 | 81 | 1012.4 |
| 20260504030223 | 0 | 22 | 0.0 | 0.0 | 0.00 | 0.03 | 0.03 | 81 | 1012.3 |
| 20260504030126 | 0 | 22 | 0.0 | 0.0 | 0.00 | 0.03 | 0.03 | 80 | 1012.5 |